Find Starlink 31940

NORAD ID: 59873 Int'l Des: 2024-098 Owner: SPXS Country: US Constellation: starlink operational
LEOCIRCULAR

リアルタイム位置

3D地球を読み込み中...

Starlink 31940について

説明を読み込み中...

次回通過

Passes for default location (London). Set your location on the main map for personalized predictions.

高度履歴

Loading altitude history...

軌道要素

1 59873U 24098R 26124.91839119 .00000666 00000-0 33714-4 0 9991
2 59873 43.0053 312.8292 0001489 267.6064 92.4617 15.27578158110537
Epoch: May 4, 2026 • Age: 18 hours

現在のステータス

高度 486.0 km
速度 7.63 km/s
衛星直下点 37.95°N, 92.3°W
打ち上げ日 May 24, 2024
運用期間 1.9 years
タイプ internet

技術仕様

分類 Payload
質量 730.00 kg
乾燥質量 700.00 kg
総質量 730.00 kg
長さ 0.30 m
直径 4.10 m
スパン 29.00 m
形状 Box + pan
製造者 SPXS
バスタイプ Starlink V2M
フェーズステータス In Orbit
所有者/国 SPXS/US

Most Searched